Location: Cartignies
(50.0929°N, 3.8447°E)
Time: 14:21:31
(UTC+00:00)

BREEZE-M DEB (TANK) - Pass Details

Date: 12 January 2026
Orbit: 338 x 14345 km, 49.5° (Epoch: 15 February)

Event Time Altitude Azimuth Distance (km) Brightness Sun altitude
Rises 18:01:16 0° 279° (W) 2,560 7.5 -17.6°
Reaches altitude 10° 18:03:32 10° 275° (W) 1,379 6.0 -18.0°
Maximum altitude 18:05:59 57° 195° (SSW) 406 2.2 -18.4°
Enters shadow 18:06:08 55° 174° (S) 415 2.2 -18.4°
